{"data":{"norad_id":53105,"epoch":"2026-05-22T12:00:19.705248Z","epoch_age_seconds":291009,"freshness":"STALE","line1":"1 53105U 22080A   26142.50022807 -.00000011  00000+0  00000+0 0  9996","line2":"2 53105  70.1680 314.1386 0005373 340.7508  19.2827  6.38965148 90029","mean_motion":6.38965148,"eccentricity":0.0005373,"inclination_deg":70.168,"raan_deg":314.1386,"arg_perigee_deg":340.7508,"mean_anomaly_deg":19.2827,"bstar":0,"rev_number":9002,"period_min":225.36440438219,"perigee_km":5882.611534185,"apogee_km":5895.7940175081,"semimajor_km":12267.339775847,"source":"CELESTRAK","updated_at":"2026-05-25T13:38:24.774587Z"}}